Location: Rana
(34.0895°N, 117.3200°W)
Time: 21:01:56
(UTC+00:00)

Cosmos 1939 Rocket - Pass Details

Date: 13 June 2024
Orbit: 512 x 558 km, 97.5° (Epoch: 23 July)

Event Time Altitude Azimuth Distance (km) Brightness Sun altitude
Rises 12:00:07 0° 19° (NNE) 2,745 7.4 -7.4°
Reaches altitude 10° 12:02:22 10° 27° (NNE) 1,840 6.6 -7.0°
Maximum altitude 12:06:09 42° 98° (E) 792 4.1 -6.3°
Drops below altitude 10° 12:09:45 11° 170° (S) 1,757 5.2 -5.7°
Sets 12:12:03 0° 178° (S) 2,683 6.0 -5.3°
